Lapse_Rate
4.3 4.7 5.5 4.6 5.7 5.6 6.3 6.3 6.5 6.4 8.2 6.8 6.9 6.5 6.5 6.6 6.7 7.2 6.5 6.5 6.5 6.5 6.5 6.5 6.5 6.5 6.5 7.1 6.8 6.5 6.5 6.5 6.5 6.5 6.5 6.5 6.5 6.5 6.5 6.5 6.5 6.5 6.5 6.5
6.9 6.5 5.0 6.4 7.6 6.9 5.4 6.5 6.5 6.7 6.8 6.5 6.5 6.5 6.5 6.7 6.5 6.5 6.5 6.5 6.5 6.5 6.5 6.5 6.5 6.5 6.9 7.1 6.6 6.5 6.5 6.5 6.5 6.5 6.5 6.5 6.5 6.5 6.5 6.5 6.5 6.5 6.5 6.5
5.7 6.9 7.5 7.5 6.8 6.5 4.7 6.4 6.5 6.8 6.9 7.4 6.5 6.5 6.5 6.5 7.1 6.6 6.8 6.5 6.6 6.5 6.5 6.5 6.5 6.5 6.5 7.1 6.9 7.0 6.8 6.5 6.5 6.5 6.5 6.5 6.5 6.5 6.5 6.5 6.5 6.5 6.5 6.5
6.3 6.0 6.0 6.2 6.9 6.7 6.1 6.9 6.7 7.2 6.5 6.6 6.5 6.5 6.5 6.5 6.5 6.8 7.0 6.5 6.5 6.5 6.5 6.5 6.5 6.5 6.5 6.7 6.9 6.8 6.5 6.5 6.5 6.5 6.5 6.5 6.5 6.5 6.5 6.5 6.5 6.5 6.5 6.5
6.9 7.0 7.0 6.8 6.7 6.5 7.9 6.8 6.8 7.6 7.0 7.0 6.5 6.5 6.5 6.5 6.5 6.5 6.5 6.5 6.5 6.5 6.5 6.5 6.5 6.5 6.5 6.5 6.5 6.5 6.5 6.5 6.5 6.5 6.5 6.5 6.5 6.5 6.5 6.5 6.5 6.5 6.5 6.5
6.9 6.5 6.2 6.4 6.4 6.6 7.4 6.2 6.3 7.6 6.8 6.5 6.5 6.5 6.5 6.5 6.5 6.8 7.0 6.6 6.5 6.5 6.5 7.0 7.2 7.3 7.1 6.7 6.5 6.5 6.5 6.5 6.5 6.5 6.5 6.5 6.5 6.5 6.5 6.5 6.5 6.5 6.5 6.5
7.5 7.4 6.9 6.5 6.3 6.2 6.1 5.9 7.8 7.1 6.5 6.5 6.5 6.5 6.6 6.5 6.5 6.5 7.0 7.1 6.5 7.2 7.4 7.8 7.7 7.4 7.1 7.0 6.7 6.9 6.5 6.5 6.5 6.5 6.5 6.5 6.5 6.5 6.5 6.5 6.5 6.5 6.5 6.5
7.4 6.9 7.0 6.6 6.2 5.5 6.1 5.0 7.4 7.6 6.5 6.7 6.6 6.6 6.5 6.9 7.2 6.7 6.8 7.2 7.7 7.3 7.5 6.5 6.5 6.5 6.5 6.5 6.5 6.5 6.5 6.5 6.5 6.5 6.5 6.5 6.5 6.5 6.5 6.5 6.5 6.5 6.5 6.6
7.1 6.7 6.6 6.3 5.4 4.0 5.8 3.8 4.0 8.3 6.7 6.6 7.4 6.6 7.0 6.5 6.5 6.5 6.9 7.7 6.8 7.7 6.5 6.5 6.5 6.5 6.5 6.5 6.5 6.5 6.5 6.5 6.5 6.5 6.5 6.5 6.5 6.5 7.1 6.8 6.5 6.8 6.9 6.7
7.3 6.8 6.1 5.6 5.1 4.2 5.9 4.2 3.2 8.4 7.1 7.9 7.7 6.7 6.7 7.4 6.8 6.5 6.9 7.2 7.1 7.6 6.5 6.5 6.5 6.5 6.5 6.5 6.5 6.5 6.5 6.5 6.5 6.5 6.5 6.5 6.5 6.8 7.2 6.5 6.5 7.1 7.3 7.3
6.1 6.2 5.8 5.3 4.6 4.0 5.4 3.9 3.5 7.7 7.6 7.9 8.0 7.3 7.4 7.4 7.3 6.5 7.1 6.9 7.0 6.6 6.5 6.5 6.5 6.5 6.5 6.5 6.5 6.5 6.5 6.5 6.5 6.5 6.5 6.5 7.0 6.7 6.5 6.7 7.5 7.7 7.8 7.9
6.0 5.9 6.0 5.4 4.9 4.2 4.3 5.6 4.6 7.1 8.1 7.8 6.3 5.7 5.7 7.4 7.8 7.7 7.6 7.0 6.9 7.0 6.5 6.5 6.5 6.5 6.5 6.5 6.5 6.5 6.5 6.5 6.5 6.5 6.5 6.9 7.4 7.1 7.7 8.0 7.7 7.8 7.9 8.2
6.2 6.1 6.3 5.6 4.3 3.9 4.6 5.0 6.1 8.0 8.1 8.2 8.2 7.8 7.1 7.6 7.0 7.1 7.2 7.6 7.9 7.6 7.8 6.8 6.5 6.5 6.5 6.5 6.5 6.5 6.5 6.9 6.5 6.5 6.5 6.8 7.4 7.9 8.0 8.1 7.9 8.3 8.4 8.4
6.4 6.5 6.3 5.4 4.4 3.8 4.5 4.7 4.3 7.0 8.2 6.8 7.4 7.8 7.3 6.8 7.9 6.9 7.4 6.8 7.0 8.0 8.1 6.9 6.5 6.5 7.0 6.5 6.5 6.5 6.7 6.7 6.5 6.5 6.7 7.2 7.5 7.9 8.0 8.1 8.4 8.3 8.5 8.5
6.4 6.3 6.3 5.4 4.7 4.7 5.3 4.2 4.5 5.1 8.0 6.8 7.3 8.3 7.6 7.9 8.2 7.7 7.8 7.9 8.1 7.8 7.1 6.6 6.5 7.0 6.7 6.7 6.5 6.5 7.0 6.5 6.5 6.5 6.9 7.0 7.3 8.1 8.3 8.1 8.0 8.3 8.3 8.3
6.7 6.6 6.0 5.3 4.8 4.6 7.5 4.3 6.1 4.9 7.3 7.7 6.5 7.4 8.3 7.7 8.1 7.9 7.7 8.1 8.1 8.0 7.3 7.0 7.4 7.8 7.0 6.5 6.5 6.9 7.5 7.8 7.7 7.0 7.9 7.7 7.9 8.3 8.5 8.3 8.4 8.6 8.6 8.6
6.7 6.3 6.2 5.4 5.1 6.1 6.1 6.8 5.4 3.4 5.6 7.5 6.6 6.7 8.0 8.6 8.0 7.8 8.2 7.8 8.1 7.9 7.5 7.0 7.1 7.2 7.3 6.5 6.5 7.0 7.6 7.9 8.0 8.3 8.1 7.6 8.0 7.9 8.6 8.6 8.7 8.7 8.8 8.9
6.8 6.5 6.1 5.9 5.8 5.5 6.8 5.8 4.2 4.3 6.0 7.8 6.5 6.5 7.2 7.6 7.4 7.2 7.5 7.6 7.9 7.8 7.4 7.5 6.9 7.3 7.1 6.5 6.8 7.6 7.9 8.1 8.1 8.2 8.3 8.2 8.5 8.5 8.5 8.6 8.6 8.4 8.4 8.6
7.0 6.8 6.4 7.3 5.9 6.6 7.1 4.9 4.6 5.0 6.6 7.0 6.7 6.5 6.5 7.6 7.6 7.7 7.7 7.9 6.5 7.9 6.6 6.7 7.0 6.5 6.5 6.6 7.2 7.6 7.9 7.8 7.9 8.3 8.4 8.3 8.2 8.3 8.2 8.3 8.4 8.2 8.2 8.4
6.8 7.5 6.9 6.2 6.1 5.3 5.5 6.6 6.3 5.9 6.5 7.7 6.6 7.6 6.5 7.5 7.3 6.9 6.9 7.3 6.5 6.5 6.6 7.5 6.5 6.5 7.2 7.6 8.0 8.2 8.2 8.3 8.4 7.9 7.7 8.1 8.0 8.1 8.2 8.3 8.5 8.5 8.2 7.1
7.7 5.9 6.6 6.0 5.3 7.7 7.5 6.6 6.7 7.1 6.6 7.4 7.4 7.3 6.6 7.8 6.5 6.5 7.3 6.5 6.5 6.5 6.5 6.5 6.5 6.5 6.7 7.9 8.0 8.4 8.5 8.6 8.6 8.6 8.5 8.6 8.4 8.2 8.2 8.3 8.1 7.4 6.3 5.8
7.1 6.5 6.8 7.3 8.0 7.4 6.6 6.5 6.7 6.5 6.5 7.2 6.8 7.2 7.5 7.3 7.6 6.8 7.0 6.5 6.5 6.5 6.9 6.5 6.5 6.5 7.5 7.9 8.0 8.3 8.5 8.5 8.5 8.6 8.4 8.5 8.5 8.6 8.5 8.3 7.1 6.3 5.4 3.6
6.2 6.6 6.3 7.2 7.0 6.5 6.5 6.5 6.5 6.5 6.9 7.3 7.2 6.6 7.3 7.3 7.7 6.9 6.5 6.5 6.5 7.0 6.5 6.5 6.5 7.1 7.6 8.0 8.2 8.3 8.5 8.5 8.5 8.4 7.9 7.7 7.5 8.0 7.0 5.8 5.1 3.2 2.7 1.7
6.8 6.9 6.5 6.5 6.5 6.5 6.5 6.5 6.5 7.1 7.3 7.3 7.3 6.9 6.9 7.3 6.6 6.6 6.5 6.5 6.6 6.5 6.5 6.5 6.5 7.1 7.3 8.0 8.2 8.1 7.1 6.1 6.4 6.0 5.5 4.8 4.2 3.6 3.4 2.9 1.8 1.0 -0.0 -0.4
7.0 6.9 6.5 6.5 7.0 7.2 7.2 7.0 7.2 7.3 7.8 7.4 7.1 7.1 7.1 6.5 6.5 6.5 6.5 6.5 6.5 6.5 6.5 6.5 7.2 4.8 5.8 5.5 5.5 4.9 4.2 3.7 4.0 3.5 2.6 1.9 1.1 1.3 1.0 0.6 1.2 1.0 -0.6 -0.7
7.4 7.2 6.6 7.0 6.7 6.7 7.0 7.0 6.9 7.4 7.7 6.4 7.5 6.5 6.5 6.5 6.5 6.5 6.5 6.5 6.5 6.5 6.5 7.4 6.7 4.3 4.6 4.5 4.0 4.0 3.7 3.6 3.4 3.2 2.3 1.5 1.0 1.1 1.6 0.2 0.4 -0.2 0.4 0.2
7.1 6.9 7.2 7.0 6.9 6.8 6.9 6.3 6.9 6.3 7.4 6.5 6.6 6.5 6.5 6.5 6.5 6.5 6.5 6.5 6.5 7.0 7.4 7.0 3.8 3.6 4.1 3.6 3.2 2.0 2.2 2.5 2.9 2.5 2.4 2.3 2.1 0.5 0.8 1.1 0.5 1.0 1.3 1.1
Wind_Speed
38 41 42 46 46 45 12 5 5 7 10 10 10 11 8 7 13 6 4 6 7 6 6 5 4 5 4 6 2 2 2 2 4 8 6 4 8 11 12 5 4 4 2 3
23 34 43 43 40 18 7 4 4 4 2 7 12 8 11 8 13 10 7 5 3 4 4 3 2 4 4 3 2 0 4 3 4 1 5 4 5 5 11 10 8 7 4 5
30 28 36 32 19 10 4 4 6 3 3 2 15 14 14 8 7 5 6 9 5 7 3 2 5 4 3 3 4 3 5 2 1 2 2 7 10 15 14 10 3 5 4 7
30 38 34 21 15 10 3 2 5 9 11 8 11 11 16 17 8 4 6 3 5 6 5 4 3 3 4 5 5 5 3 4 7 12 9 12 10 12 10 4 4 2 7 6
24 33 30 21 7 5 1 4 7 5 16 15 17 10 16 21 9 8 8 11 10 6 6 3 6 6 5 4 5 3 3 3 5 8 7 5 11 13 8 13 14 13 12 7
24 28 25 15 4 0 1 2 2 6 9 17 15 11 19 16 12 5 6 15 10 7 6 2 1 3 2 1 0 3 2 1 3 4 4 5 2 7 8 11 10 4 4 6
17 16 15 10 7 1 1 0 3 7 10 15 11 16 16 17 7 11 10 8 6 5 3 3 3 4 5 6 5 3 1 1 3 2 6 4 6 7 10 12 9 9 10 9
15 7 6 5 5 5 2 2 2 4 12 12 14 18 18 14 12 13 10 4 4 3 3 4 5 4 5 6 5 5 3 1 3 3 1 6 7 5 3 2 4 4 5 8
12 9 4 4 4 4 2 2 2 5 11 7 18 17 17 13 9 7 4 5 2 1 2 3 6 5 4 5 6 5 4 2 4 4 4 6 6 4 2 3 4 3 1 4
9 8 6 4 5 3 1 3 4 4 7 5 11 9 10 6 5 5 5 5 3 1 4 4 4 4 1 5 5 4 3 2 4 3 2 4 3 2 4 5 4 5 6 5
10 9 7 6 9 7 3 3 6 2 4 6 5 3 5 5 6 7 6 5 2 3 5 4 3 2 2 3 2 2 2 2 3 2 3 4 2 4 4 8 9 9 9 10
9 8 7 7 7 11 1 4 3 6 6 6 6 9 8 5 4 6 4 2 5 2 3 2 3 3 3 4 4 2 3 3 2 4 4 5 6 9 10 9 11 10 11 10
10 9 7 7 13 12 8 4 4 8 8 8 5 7 7 7 6 2 3 2 3 3 2 3 2 3 3 4 3 3 3 2 2 5 4 6 7 7 7 8 10 10 10 10
12 11 9 10 12 14 6 4 3 2 5 5 5 2 4 4 5 8 8 9 5 4 1 2 2 2 2 2 3 2 3 6 6 4 6 7 4 7 10 11 11 11 10 9
12 12 10 13 17 16 16 7 6 4 2 4 6 8 4 3 7 10 9 7 5 3 3 2 2 2 3 2 2 3 5 5 3 2 12 2 12 11 11 11 11 10 10 9
14 15 16 12 9 3 2 4 5 8 3 5 4 1 3 4 8 10 9 5 3 1 2 3 3 2 2 3 2 3 4 4 2 4 11 8 14 12 10 12 11 10 10 10
18 17 13 12 11 6 4 3 2 8 2 4 5 5 3 3 2 2 3 4 3 2 2 2 2 3 2 1 2 8 7 6 8 13 15 13 16 8 12 13 12 11 11 10
20 22 20 19 18 12 4 5 6 2 4 3 4 3 5 1 2 2 2 2 0 3 2 2 1 3 2 3 4 10 9 9 11 13 2 10 13 16 15 14 13 13 11 11
20 17 11 4 4 2 2 3 5 7 3 3 2 7 4 3 2 2 2 1 2 1 1 2 2 2 4 2 11 12 12 11 13 9 11 15 15 15 15 15 13 12 11 10
10 5 3 2 2 1 3 1 2 3 3 2 3 2 4 3 3 2 2 1 2 2 2 1 2 3 0 1 7 10 12 10 14 13 12 13 14 14 14 13 10 10 11 11
2 2 2 1 3 1 3 2 1 1 2 2 3 3 6 1 2 3 1 2 1 2 3 2 1 2 2 5 8 10 11 11 12 9 9 10 12 13 13 11 9 9 10 10
4 5 4 1 1 2 3 2 2 2 3 3 4 5 3 2 1 2 2 2 1 2 2 2 2 1 3 7 10 11 11 11 10 8 10 10 11 12 11 10 10 10 10 9
2 3 3 1 1 3 4 6 3 4 5 4 5 5 2 3 1 3 2 2 2 1 2 2 2 3 4 7 10 11 10 10 10 9 9 10 11 11 11 11 10 11 10 9
2 2 5 1 3 3 2 2 3 3 4 8 6 4 2 2 2 1 3 2 2 2 2 3 2 2 5 8 9 11 11 10 9 10 9 9 11 9 8 9 10 10 9 8
2 1 3 2 2 2 3 3 3 2 6 6 4 3 2 2 3 1 3 3 3 3 2 1 2 3 5 8 8 8 8 8 9 9 9 9 9 9 9 8 9 9 9 8
2 3 2 2 4 4 3 2 3 3 5 2 2 3 2 2 3 3 3 3 3 1 1 1 2 1 5 7 7 6 7 8 8 8 9 10 9 10 10 9 8 8 8 8
2 3 2 2 3 3 2 2 3 3 2 2 2 2 2 3 3 3 2 2 1 1 1 1 2 3 4 6 7 7 8 8 9 9 9 9 9 10 10 10 8 7 7 5
Wind_Direction
118 126 129 130 134 134 109 114 111 165 189 162 192 205 175 129 147 147 136 124 114 151 151 152 131 156 145 152 147 179 153 241 284 297 338 332 262 247 232 245 215 252 300 98
96 123 127 130 138 131 120 86 82 140 228 175 182 174 149 153 158 165 162 135 113 123 140 125 169 173 124 166 211 16 159 180 299 75 162 55 312 282 266 287 292 252 277 96
85 98 120 117 97 103 82 121 128 150 224 251 180 159 157 129 156 126 103 111 109 128 99 25 159 180 146 137 219 203 195 99 289 24 347 310 312 313 267 249 253 116 50 111
134 138 144 143 104 79 75 85 143 164 182 173 183 175 161 154 152 141 139 116 165 146 127 125 142 177 166 164 168 202 185 157 139 138 107 51 10 15 28 76 29 2 119 98
140 150 151 158 116 82 51 133 147 184 155 156 168 159 175 167 135 155 159 151 151 151 128 123 170 168 187 167 155 153 156 150 205 188 199 98 31 21 59 84 91 98 116 96
156 155 166 189 161 40 24 100 57 139 154 171 165 172 163 162 139 65 140 143 138 142 124 106 10 254 249 145 126 115 124 319 213 159 176 188 160 8 51 72 49 135 114 112
139 149 156 159 187 258 312 111 165 143 157 171 168 158 154 150 141 133 130 140 138 108 90 93 116 191 215 220 204 208 151 257 259 156 185 197 118 116 87 78 60 79 106 141
120 104 109 154 185 186 225 191 226 145 153 148 147 147 138 125 120 123 127 94 72 125 152 169 156 146 162 174 172 177 211 305 262 248 113 109 162 175 207 317 80 42 149 163
122 121 125 100 74 160 187 75 306 122 130 156 146 138 145 140 134 129 107 87 79 159 167 200 200 185 161 165 153 160 185 209 245 197 223 212 97 148 225 294 155 36 88 157
134 135 131 101 80 97 203 59 348 99 106 108 158 139 142 136 142 133 142 144 139 278 177 188 190 162 14 178 185 176 206 210 242 194 231 116 75 184 176 241 102 109 83 97
152 131 108 90 52 51 56 61 10 68 93 71 68 107 125 129 163 162 137 140 171 147 185 200 143 164 134 171 77 177 222 219 197 204 209 195 45 168 246 116 124 118 95 91
128 114 100 79 40 33 2 84 41 53 76 90 61 74 50 38 81 130 163 70 128 133 151 179 126 149 194 162 177 141 180 344 11 353 38 91 62 92 119 125 126 122 114 109
126 113 108 82 66 56 64 97 76 94 99 93 87 58 36 47 38 342 147 146 121 150 356 119 107 161 211 174 148 132 137 128 102 184 118 115 105 99 107 116 122 121 120 120
133 125 105 81 73 69 72 69 2 67 101 97 89 74 48 346 49 64 70 110 107 111 173 106 129 137 268 144 96 219 54 154 139 86 134 130 133 121 119 116 116 114 110 113
130 116 108 96 93 91 91 78 38 26 64 121 112 105 42 53 83 79 86 101 113 134 133 132 102 109 173 99 186 174 181 158 195 127 162 235 155 144 136 132 129 124 124 122
128 118 114 99 73 18 62 51 41 13 48 115 103 91 123 98 94 79 69 65 62 67 69 90 99 70 285 197 193 129 140 151 121 136 145 126 139 143 145 138 138 138 135 131
120 116 107 85 75 63 56 76 32 342 340 101 120 124 115 146 90 61 64 53 63 19 95 82 115 139 262 203 227 159 151 131 122 127 119 124 148 151 144 137 132 131 125 129
118 109 103 98 104 121 75 30 6 344 88 70 113 101 154 251 128 111 352 90 121 38 65 155 183 158 242 245 144 151 150 140 146 154 149 154 142 140 141 140 143 142 140 139
119 117 111 72 39 67 91 298 345 48 50 107 115 152 147 158 99 97 120 306 101 53 137 118 252 169 228 246 170 172 169 171 162 144 128 140 149 149 151 154 156 152 149 148
103 56 60 83 60 56 296 9 29 36 25 43 94 128 130 179 163 120 139 358 111 163 89 183 245 255 285 196 181 173 173 171 156 150 156 158 158 161 165 165 159 154 152 148
45 71 73 73 317 87 43 71 61 111 106 85 93 130 133 167 158 122 351 132 118 182 115 254 221 248 159 166 166 165 170 168 182 186 166 175 168 165 164 160 153 148 150 150
99 104 123 100 68 74 97 97 125 208 142 134 142 127 102 121 242 116 166 105 202 147 122 216 245 136 143 173 168 166 165 170 164 159 154 159 164 167 164 158 154 151 142 135
121 88 92 189 38 138 173 161 178 167 164 160 156 125 111 142 126 82 132 152 123 156 208 241 251 106 167 171 167 164 161 162 157 146 146 151 151 153 156 148 142 141 140 138
66 91 118 248 157 188 172 143 116 92 143 145 132 108 116 112 86 110 124 73 204 185 230 219 125 69 191 171 166 164 165 158 156 146 143 139 141 136 124 136 147 140 146 150
85 16 93 125 94 90 95 95 124 113 148 136 121 98 104 91 110 78 123 151 206 230 240 98 75 6 180 167 163 155 154 158 149 150 149 145 141 142 137 142 148 142 142 160
56 50 121 106 139 118 146 137 97 154 149 140 101 118 112 100 122 155 180 179 218 133 197 39 357 360 188 167 159 160 153 156 149 150 152 149 152 155 148 141 145 149 158 163
48 59 30 49 56 66 63 36 114 148 179 101 137 120 89 127 136 153 191 206 65 58 105 14 326 294 191 159 143 143 147 149 152 150 154 151 143 135 145 155 161 165 164 168